When you browse on this site, cookies collect data to enhance your experience and personalize the content and advertising you see.
Visit our Privacy Policy to learn more. By continuing to use the site, you agree to this use of cookies and data.
  • Em Portugal
  • Lista de países
  • Para 7 dias
  • Temperatura da água
  • Mapa do tempo
  • Widgets de tempo
  • user-avatar
    Iniciar Sessão

    Previsão horária em Leontevo

    Hoje, 24 Janeiro, Sexta-feira

    Tempo Temperatura Precipitação Vento Pressão Humidade
    00:00 -9°C° 0 mm 4 m/s 742 mmHg 84%
    01:00 -9°C° 0 mm 4 m/s 743 mmHg 85%
    02:00 -9°C° 0 mm 4 m/s 743 mmHg 85%
    03:00 -9°C° 0 mm 4 m/s 743 mmHg 86%
    04:00 -9°C° 0 mm 4 m/s 742 mmHg 86%
    05:00 -9°C° 0 mm 4 m/s 742 mmHg 86%
    06:00 -9°C° 0 mm 4 m/s 741 mmHg 86%
    07:00 -8°C° 0 mm 5 m/s 741 mmHg 86%
    08:00 -8°C° 0 mm 5 m/s 740 mmHg 86%
    09:00 -8°C° 0 mm 5 m/s 740 mmHg 86%
    10:00 -8°C° 0.2 mm 6 m/s 739 mmHg 88%
    11:00 -7°C° 0.2 mm 7 m/s 739 mmHg 90%
    12:00 -6°C° 0.2 mm 7 m/s 738 mmHg 92%
    13:00 -6°C° 0.1 mm 7 m/s 737 mmHg 91%
    14:00 -4°C° 0.1 mm 7 m/s 736 mmHg 91%
    15:00 -4°C° 0.1 mm 7 m/s 736 mmHg 91%
    16:00 -3°C° 0.1 mm 7 m/s 735 mmHg 92%
    17:00 -3°C° 0.1 mm 7 m/s 734 mmHg 94%
    18:00 -3°C° 0.1 mm 7 m/s 734 mmHg 96%
    19:00 -2°C° 0.1 mm 7 m/s 733 mmHg 95%
    20:00 -1°C° 0.1 mm 7 m/s 733 mmHg 95%
    21:00 0°C° 0.1 mm 7 m/s 733 mmHg 94%
    22:00 -1°C° 0.1 mm 7 m/s 733 mmHg 93%
    23:00 -1°C° 0.1 mm 6 m/s 733 mmHg 92%

    Amanhã, 25 Janeiro, Sábado

    Tempo Temperatura Precipitação Vento Pressão Humidade
    00:00 -1°C° 0.1 mm 6 m/s 733 mmHg 90%
    01:00 -1°C° 0 mm 6 m/s 733 mmHg 92%
    02:00 -1°C° 0 mm 5 m/s 733 mmHg 94%
    03:00 -1°C° 0 mm 4 m/s 733 mmHg 95%
    04:00 -1°C° 0.2 mm 5 m/s 733 mmHg 94%
    05:00 -1°C° 0.2 mm 5 m/s 733 mmHg 92%
    06:00 -1°C° 0.2 mm 6 m/s 732 mmHg 91%
    07:00 -2°C° 0.1 mm 6 m/s 732 mmHg 90%
    08:00 -1°C° 0.1 mm 5 m/s 732 mmHg 89%
    09:00 -1°C° 0.1 mm 5 m/s 732 mmHg 89%
    10:00 -2°C° 0 mm 6 m/s 732 mmHg 87%
    11:00 -2°C° 0 mm 6 m/s 732 mmHg 85%
    12:00 -2°C° 0 mm 6 m/s 732 mmHg 84%
    13:00 -2°C° 0 mm 6 m/s 731 mmHg 83%
    14:00 -2°C° 0 mm 7 m/s 731 mmHg 82%
    15:00 -2°C° 0 mm 7 m/s 730 mmHg 81%
    16:00 -2°C° 0.2 mm 7 m/s 730 mmHg 82%
    17:00 -3°C° 0.2 mm 7 m/s 730 mmHg 83%
    18:00 -3°C° 0.2 mm 7 m/s 730 mmHg 84%
    19:00 -4°C° 0.3 mm 7 m/s 731 mmHg 81%
    20:00 -4°C° 0.3 mm 7 m/s 732 mmHg 77%
    21:00 -6°C° 0.3 mm 7 m/s 732 mmHg 74%
    22:00 -6°C° 0 mm 7 m/s 733 mmHg 75%
    23:00 -6°C° 0 mm 7 m/s 733 mmHg 76%

    Depois de amanhã, 26 Janeiro, Domingo

    Tempo Temperatura Precipitação Vento Pressão Humidade
    00:00 -6°C° 0 mm 7 m/s 734 mmHg 77%
    01:00 -6°C° 0 mm 7 m/s 734 mmHg 78%
    02:00 -6°C° 0 mm 6 m/s 735 mmHg 80%
    03:00 -6°C° 0 mm 6 m/s 735 mmHg 81%
    04:00 -7°C° 0 mm 7 m/s 736 mmHg 81%
    05:00 -7°C° 0 mm 7 m/s 737 mmHg 80%
    06:00 -7°C° 0 mm 7 m/s 738 mmHg 80%
    07:00 -7°C° 0 mm 7 m/s 739 mmHg 80%
    08:00 -6°C° 0 mm 6 m/s 739 mmHg 80%
    09:00 -6°C° 0 mm 6 m/s 740 mmHg 80%
    10:00 -6°C° 0 mm 6 m/s 741 mmHg 78%
    11:00 -6°C° 0 mm 6 m/s 742 mmHg 77%
    12:00 -5°C° 0 mm 6 m/s 743 mmHg 75%
    13:00 -5°C° 0 mm 6 m/s 743 mmHg 75%
    14:00 -5°C° 0 mm 5 m/s 744 mmHg 75%
    15:00 -5°C° 0 mm 5 m/s 744 mmHg 75%
    16:00 -5°C° 0 mm 5 m/s 744 mmHg 77%
    17:00 -6°C° 0 mm 5 m/s 744 mmHg 79%
    18:00 -6°C° 0 mm 5 m/s 744 mmHg 81%
    19:00 -6°C° 0 mm 5 m/s 744 mmHg 80%
    20:00 -6°C° 0 mm 5 m/s 744 mmHg 79%
    21:00 -5°C° 0 mm 5 m/s 744 mmHg 79%
    22:00 -5°C° 0 mm 6 m/s 744 mmHg 81%
    23:00 -5°C° 0 mm 6 m/s 743 mmHg 83%

    27 Janeiro, Segunda-feira

    Tempo Temperatura Precipitação Vento Pressão Humidade
    00:00 -5°C° 0 mm 6 m/s 743 mmHg 85%
    01:00 -4°C° 0 mm 7 m/s 743 mmHg 88%
    02:00 -4°C° 0 mm 7 m/s 742 mmHg 90%
    03:00 -3°C° 0 mm 7 m/s 742 mmHg 92%
    04:00 -3°C° 0.1 mm 7 m/s 742 mmHg 92%
    05:00 -2°C° 0.1 mm 7 m/s 742 mmHg 93%
    06:00 -1°C° 0.1 mm 7 m/s 742 mmHg 94%
    07:00 -1°C° 0 mm 7 m/s 742 mmHg 93%
    08:00 -1°C° 0 mm 6 m/s 742 mmHg 92%
    09:00 -1°C° 0 mm 6 m/s 742 mmHg 91%
    10:00 -1°C° 0 mm 6 m/s 743 mmHg 92%
    11:00 -1°C° 0 mm 6 m/s 743 mmHg 92%
    12:00 -1°C° 0 mm 5 m/s 743 mmHg 93%
    13:00 -1°C° 0 mm 5 m/s 743 mmHg 93%
    14:00 -1°C° 0 mm 5 m/s 743 mmHg 92%
    15:00 -1°C° 0 mm 5 m/s 743 mmHg 92%
    16:00 -1°C° 0 mm 5 m/s 743 mmHg 93%
    17:00 -1°C° 0 mm 5 m/s 743 mmHg 94%
    18:00 -1°C° 0 mm 5 m/s 743 mmHg 94%
    19:00 -2°C° 0 mm 5 m/s 744 mmHg 95%
    20:00 -2°C° 0 mm 5 m/s 744 mmHg 95%
    21:00 -2°C° 0 mm 4 m/s 744 mmHg 95%
    22:00 -2°C° 0 mm 4 m/s 744 mmHg 95%
    23:00 -2°C° 0 mm 4 m/s 744 mmHg 95%

    28 Janeiro, Terça-feira

    Tempo Temperatura Precipitação Vento Pressão Humidade
    00:00 -2°C° 0 mm 3 m/s 744 mmHg 95%
    01:00 -2°C° 0 mm 3 m/s 744 mmHg 95%
    02:00 -2°C° 0 mm 3 m/s 743 mmHg 95%
    03:00 -2°C° 0 mm 2 m/s 743 mmHg 96%
    04:00 -2°C° 0.1 mm 2 m/s 743 mmHg 96%
    05:00 -2°C° 0.1 mm 2 m/s 743 mmHg 97%
    06:00 -2°C° 0.1 mm 2 m/s 743 mmHg 97%
    07:00 -2°C° 0.2 mm 2 m/s 743 mmHg 97%
    08:00 -2°C° 0.2 mm 2 m/s 742 mmHg 97%
    09:00 -2°C° 0.2 mm 2 m/s 742 mmHg 98%
    10:00 -1°C° 0.1 mm 2 m/s 742 mmHg 97%
    11:00 -1°C° 0.1 mm 3 m/s 742 mmHg 97%
    12:00 -1°C° 0.1 mm 3 m/s 742 mmHg 96%
    13:00 -1°C° 0.1 mm 3 m/s 742 mmHg 97%
    14:00 -1°C° 0.1 mm 3 m/s 742 mmHg 97%
    15:00 -1°C° 0.1 mm 3 m/s 741 mmHg 97%
    16:00 -1°C° 0 mm 3 m/s 741 mmHg 97%
    17:00 -1°C° 0 mm 3 m/s 741 mmHg 97%
    18:00 -1°C° 0 mm 3 m/s 741 mmHg 96%
    19:00 -1°C° 0.1 mm 3 m/s 741 mmHg 97%
    20:00 -1°C° 0.1 mm 3 m/s 741 mmHg 97%
    21:00 -2°C° 0.1 mm 4 m/s 741 mmHg 97%
    22:00 -2°C° 0 mm 4 m/s 741 mmHg 97%
    23:00 -2°C° 0 mm 4 m/s 741 mmHg 96%

    29 Janeiro, Quarta-feira

    Tempo Temperatura Precipitação Vento Pressão Humidade
    00:00 -1°C° 0 mm 4 m/s 741 mmHg 95%
    01:00 -1°C° 0 mm 4 m/s 741 mmHg 96%
    02:00 -1°C° 0 mm 4 m/s 741 mmHg 96%
    03:00 -1°C° 0 mm 5 m/s 740 mmHg 96%
    04:00 -1°C° 0 mm 5 m/s 740 mmHg 96%
    05:00 -1°C° 0 mm 6 m/s 740 mmHg 96%
    06:00 -1°C° 0 mm 6 m/s 739 mmHg 96%
    07:00 -1°C° 0.2 mm 7 m/s 739 mmHg 96%
    08:00 -1°C° 0.2 mm 7 m/s 738 mmHg 96%
    09:00 -1°C° 0.2 mm 7 m/s 738 mmHg 96%
    10:00 -1°C° 0.4 mm 7 m/s 738 mmHg 96%
    11:00 -1°C° 0.4 mm 7 m/s 738 mmHg 95%
    12:00 -1°C° 0.4 mm 7 m/s 738 mmHg 94%
    13:00 -1°C° 0.1 mm 7 m/s 738 mmHg 93%
    14:00 +1°C° 0.1 mm 6 m/s 738 mmHg 93%
    15:00 +1°C° 0.1 mm 6 m/s 738 mmHg 92%
    16:00 0°C° 0 mm 5 m/s 739 mmHg 91%
    17:00 0°C° 0 mm 5 m/s 739 mmHg 90%
    18:00 0°C° 0 mm 5 m/s 740 mmHg 88%
    19:00 -1°C° 0 mm 5 m/s 740 mmHg 89%
    20:00 -1°C° 0 mm 5 m/s 740 mmHg 89%
    21:00 -1°C° 0 mm 5 m/s 740 mmHg 90%
    22:00 -1°C° 0 mm 5 m/s 740 mmHg 90%
    23:00 -2°C° 0 mm 6 m/s 740 mmHg 91%
    Mostrar mais